Aérodrome :
LOGIN :

S'inscrire | Disclaimer

   EN    FR    IT 

 










Légende :    VFR   VFR Marginal   IFR   IFR Intensif   IFR Très Intensif
Visi : 
Plafond : 
>= 8 km
>= 3000ft
5 à 8 km
1000 à 3000 ft
1500m à 5 km
500 à 1000 ft
800 à 1500m
200 à 500 ft
< 800m
< 200 ft
Symboles :   Orages  Brouillard  Fortes neiges  Fortes précipitations  Vent > 20 kt
SIGMETs :   Divers  Orages  Givrage  Turbulence  Onde Orograph.  Cendres Volcan.







- Altitude de l'aérodrome : 503 ft
- Code IATA : BLE


ESSD - Borlange

DERNIER METAR :
  • 101650Z AUTO 35010KT 9999 OVC009/// 01/01 Q1000

METARs EXPIRÉS :
  • 101620Z 35010KT 9999 OVC010 01/01 Q1000
  • 101550Z 35010KT 9999 OVC010 01/01 Q0999
  • 101520Z 35010KT 9999 -SN OVC009 01/01 Q0998
  • 101450Z 35010KT 9999 -SN BKN008 OVC012 01/01 Q0997
  • 101420Z 35009KT 6000 -SN VV011 01/01 Q0997

Prévision TAF périmée.
Pas de NOTAMs connus pour ce terrain.



MET'MAP, la Météo Aéronautique d'un coup d'oeil ! - Copyright ORBIFLY Décembre 2007 - Disclaimer

ORBIFLY MET'MAP TEAM :

Programmation & Développement : Alexandra Zaïnal
Conception & Développement : Baudouin d'Aumeries
Co-Programmation & Développement : Marc-Olivier Méhu
Soutien technique & logistique : Manuel Goepfert

Contact : metmap@orbifly.com




SOURCES & CREDITS :

   NOAA